This is the latest recevied weather packets stored in our database for station/object EA7JCM-13. If no packets are shown the sender has not sent any weather packets the latest 10 day(s).
| Time | Temp. | Humidity | Pressure | Rain* | Wind** | Luminosity | Snow |
|---|---|---|---|---|---|---|---|
| 1778002503 | 19.44° C | 35% | 1008.9 hPa | 0 mm | - | - | - |
| 1778002203 | 18.89° C | 36% | 1009 hPa | 0 mm | - | - | - |
| 1778001902 | 19.44° C | 34% | 1009.1 hPa | 0 mm | - | - | - |
| 1778001602 | 19.44° C | 36% | 1008.9 hPa | 0 mm | - | - | - |
| 1778001303 | 19.44° C | 35% | 1008.8 hPa | 0 mm | - | - | - |
| 1778001003 | 18.89° C | 36% | 1008.9 hPa | 0 mm | - | - | - |
| 1778000703 | 18.89° C | 36% | 1008.9 hPa | 0 mm | - | - | - |
| 1778000403 | 19.44° C | 35% | 1008.9 hPa | 0 mm | - | - | - |
| 1778000103 | 19.44° C | 35% | 1008.9 hPa | 0 mm | - | - | - |
| 1777999802 | 19.44° C | 35% | 1009.1 hPa | 0 mm | - | - | - |
| 1777999503 | 20° C | 34% | 1009 hPa | 0 mm | - | - | - |
| 1777999203 | 19.44° C | 35% | 1009 hPa | 0 mm | - | - | - |
| 1777998902 | 19.44° C | 34% | 1009 hPa | 0 mm | - | - | - |
| 1777998602 | 20.56° C | 35% | 1009.1 hPa | 0 mm | - | - | - |
| 1777998303 | 19.44° C | 36% | 1008.9 hPa | 0 mm | - | - | - |
| 1777998003 | 19.44° C | 35% | 1009.1 hPa | 0 mm | - | - | - |
| 1777997703 | 20.56° C | 35% | 1008.8 hPa | 0 mm | - | - | - |
| 1777997403 | 20° C | 35% | 1009 hPa | 0 mm | - | - | - |
| 1777997102 | 20° C | 34% | 1009 hPa | 0 mm | - | - | - |
| 1777996803 | 20.56° C | 36% | 1009.2 hPa | 0 mm | - | - | - |
| 1777996503 | 19.44° C | 36% | 1009.1 hPa | 0 mm | - | - | - |
| 1777996203 | 18.33° C | 37% | 1008.9 hPa | 0 mm | - | - | - |
| 1777995903 | 18.89° C | 35% | 1009.2 hPa | 0 mm | - | - | - |
| 1777995603 | 20.56° C | 33% | 1009 hPa | 0 mm | - | - | - |
| 1777995303 | 19.44° C | 33% | 1009.2 hPa | 0 mm | - | - | - |
* Rain latest hour (hover to see other rain measurements)
** Current wind speed in m/s (hover to see current wind gust speed)